User: anonymous   Login
Location: Little Elm
(33.1626°N, 96.9375°W)
Time: 01:04:16
(UTC+00:00)
Language:

Cosmos 1602 - Orbit

View from above orbital plane
View from above orbital plane
View from above satellite
View from above satellite

Ground track
Ground track

The orbit data is extracted from the following two-line orbital elements,

1 15331U 84105A   22140.52288318  .00005399  00000-0  28127-3 0  9996
2 15331  82.5380   0.8500 0013672 183.6912 176.4222 15.15716476 53648
Epoch (UTC): 20 May 2022 12:32:57
Eccentricity: 0.0013672
inclination: 82.5380°
perigee height: 509 km
apogee height: 528 km
right ascension of ascending node: 0.8500°
argument of perigee: 183.6912°
revolutions per day: 15.15716476
mean anomaly at epoch: 176.4222°
orbit number at epoch: 5364

The dashed part of the orbit path shows where the satellite is in the earth's shadow,  

DLR